FW2363 Mobile AL US current weather conditions

sailwx.info

Wind from 059

Air temperature 17.8° C
Dewpoint 17.0° C

Last reported at 2020-Jan-18 19:05 UTC.
Time now 2020-Jan-18 19:42 UTC

Location: N 30°45' W 088°12'.
View on Google Maps.

See reports from other nearby stations

  
Tides and Currents Weather Stations Pressure Air Temp Water Temp Dewpoint Dewpoint Depression Visibility Wind Speed Wind Dir Waves Ship Positions
date/time (UTC)wind fromknots sea level pressurealtimeterstation pressurevisibilityair tempwater tempwave heightnotes
2020-Jan-18 19:05 059 17.8
2020-Jan-18 19:00 071 17.8
2020-Jan-18 18:50 074 17.8
2020-Jan-18 18:46 042 17.2
2020-Jan-18 18:40 042 17.2
2020-Jan-18 18:35 042 17.2
2020-Jan-18 18:30 044 17.2
2020-Jan-18 18:25 044 17.2
2020-Jan-18 18:18 078 17.2
2020-Jan-18 18:15 078 17.2
2020-Jan-18 18:05 078 17.2
2020-Jan-18 18:00 078 17.2
2020-Jan-18 17:55 078 17.2
2020-Jan-18 17:50 078 17.2
2020-Jan-18 17:40 078 17.2
2020-Jan-18 17:30 127 17.8
2020-Jan-18 17:25 129 17.2
2020-Jan-18 17:20 076 17.2
2020-Jan-18 17:16 067 17.2
2020-Jan-18 17:10 067 17.2
2020-Jan-18 17:05 067 17.2
2020-Jan-18 17:00 080 17.2
2020-Jan-18 16:55 080 0 gusting 1 17.2
2020-Jan-18 16:50 135 17.2
2020-Jan-18 16:45 069 16.7
2020-Jan-18 16:40 069 16.7
2020-Jan-18 16:31 069 16.1
2020-Jan-18 16:25 135 16.1
2020-Jan-18 16:20 135 16.1
2020-Jan-18 16:15 135 16.1
2020-Jan-18 16:10 109 16.1
2020-Jan-18 16:05 118 16.1
2020-Jan-18 16:00 118 16.1
2020-Jan-18 15:55 118 16.1
2020-Jan-18 15:47 134 16.1
2020-Jan-18 15:45 121 16.1
2020-Jan-18 15:35 071 16.1
2020-Jan-18 15:30 171 15.6
2020-Jan-18 15:20 071 16.1
2020-Jan-18 15:16 081 15.6
2020-Jan-18 15:10 147 16.1
2020-Jan-18 15:05 090 16.1
2020-Jan-18 15:00 090 16.1
2020-Jan-18 14:55 186 16.1
2020-Jan-18 14:50 096 16.1
2020-Jan-18 14:47 128 15.6
2020-Jan-18 14:40 129 16.1
2020-Jan-18 14:35 160 16.1
2020-Jan-18 14:30 172 16.1
2020-Jan-18 14:20 166 16.1
2020-Jan-18 14:16 163 0 gusting 3 15.6
2020-Jan-18 14:10 169 0 gusting 3 16.1
2020-Jan-18 14:05 141 16.1
2020-Jan-18 14:00 171 16.1
2020-Jan-18 13:55 155 0 gusting 4 16.1
2020-Jan-18 13:50 155 16.1
2020-Jan-18 13:45 110 0 gusting 2 16.1
2020-Jan-18 13:40 161 0 gusting 3 16.1
2020-Jan-18 13:35 153 16.1
2020-Jan-18 13:30 081 0 gusting 5 16.1
2020-Jan-18 13:20 138 15.6
2020-Jan-18 13:17 151 15.6
2020-Jan-18 13:10 150 0 gusting 4 15.6
2020-Jan-18 13:05 145 0 gusting 2 16.1
2020-Jan-18 13:00 101 0 gusting 1 16.1
2020-Jan-18 12:55 172 16.1
2020-Jan-18 12:50 108 0 gusting 6 16.1
2020-Jan-18 12:47 111 0 gusting 6 15.6
2020-Jan-18 12:40 153 1 gusting 3 16.1
2020-Jan-18 12:35 156 0 gusting 3 16.1
2020-Jan-18 12:30 138 16.1
2020-Jan-18 12:20 041 0 gusting 5 16.1
2020-Jan-18 12:10 161 0 gusting 2 16.1
2020-Jan-18 12:05 165 16.1
2020-Jan-18 12:00 083 0 gusting 5 16.1
2020-Jan-18 11:55 176 0 gusting 3 16.1
2020-Jan-18 11:50 101 0 gusting 5 16.1
2020-Jan-18 11:45 166 16.1
2020-Jan-18 11:35 115 0 gusting 6 16.1
2020-Jan-18 11:33 153 0 gusting 6 16.1
2020-Jan-18 11:25 145 0 gusting 6 16.1
2020-Jan-18 11:15 079 1 gusting 4 16.1
2020-Jan-18 11:05 103 0 gusting 6 16.7
2020-Jan-18 10:55 099 16.7
2020-Jan-18 10:45 111 0 gusting 4 16.7
2020-Jan-18 10:35 142 0 gusting 4 17.2
2020-Jan-18 10:31 112 0 gusting 3 16.7
2020-Jan-18 10:25 170 17.2
2020-Jan-18 10:20 071 0 gusting 3 17.2
2020-Jan-18 10:10 063 17.2
2020-Jan-18 10:00 142 17.2
2020-Jan-18 09:55 103 0 gusting 4 16.7
2020-Jan-18 09:50 056 0 gusting 4 16.7
2020-Jan-18 09:45 096 0 gusting 3 16.7
2020-Jan-18 09:35 052 16.7
2020-Jan-18 09:30 061 16.7
2020-Jan-18 09:25 155 16.7
2020-Jan-18 09:20 088 16.7
2020-Jan-18 09:17 088 16.7
2020-Jan-18 09:15 088 16.7
2020-Jan-18 09:05 049 16.7
2020-Jan-18 09:00 065 16.7
2020-Jan-18 08:55 044 16.7
2020-Jan-18 08:50 321 0 gusting 1 16.7
2020-Jan-18 08:45 074 16.1
2020-Jan-18 08:40 288 0 gusting 2 16.7
2020-Jan-18 08:35 080 16.7
2020-Jan-18 08:30 080 16.7
2020-Jan-18 08:25 131 16.7
2020-Jan-18 08:16 104 16.1
2020-Jan-18 08:15 104 16.7
2020-Jan-18 08:05 063 0 gusting 6 16.7
2020-Jan-18 08:00 069 16.7
2020-Jan-18 07:55 099 16.7
2020-Jan-18 07:45 140 0 gusting 3 16.7
2020-Jan-18 07:35 142 0 gusting 3 16.7
2020-Jan-18 07:31 101 16.1
2020-Jan-18 07:25 138 0 gusting 4 16.7
2020-Jan-18 07:17 121 16.1
2020-Jan-18 07:10 155 1 gusting 6 16.1
2020-Jan-18 07:05 122 1 gusting 6 16.1
2020-Jan-18 07:00 165 0 gusting 4 16.1
2020-Jan-18 06:55 067 0 gusting 4 16.1
2020-Jan-18 06:50 117 0 gusting 3 16.1
2020-Jan-18 06:45 131 0 gusting 2 15.6
2020-Jan-18 06:40 035 16.1
2020-Jan-18 06:35 121 0 gusting 3 16.1
2020-Jan-18 06:30 165 0 gusting 1 16.1
2020-Jan-18 06:25 143 0 gusting 1 16.1
2020-Jan-18 06:16 009 15.6
2020-Jan-18 06:15 009 16.1
2020-Jan-18 06:05 110 16.1
2020-Jan-18 05:55 070 16.1
2020-Jan-18 05:50 155 16.1
2020-Jan-18 05:48 153 16.1
2020-Jan-18 05:40 087 16.1
2020-Jan-18 05:35 098 16.1
2020-Jan-18 05:30 148 16.1
2020-Jan-18 05:25 148 16.1
2020-Jan-18 05:20 148 16.1
2020-Jan-18 05:16 148 16.1
2020-Jan-18 05:10 148 16.1
2020-Jan-18 05:05 148 16.1
2020-Jan-18 05:00 148 16.1
2020-Jan-18 04:55 156 16.1
2020-Jan-18 04:50 156 16.1
2020-Jan-18 04:45 156 16.1
2020-Jan-18 04:35 153 16.1
2020-Jan-18 04:25 153 16.1
2020-Jan-18 04:16 153 15.6
2020-Jan-18 04:15 153 16.1
2020-Jan-18 04:05 153 16.1
2020-Jan-18 03:55 153 16.1
2020-Jan-18 03:45 153 16.1
2020-Jan-18 03:40 153 16.1
2020-Jan-18 03:35 153 16.1
2020-Jan-18 03:31 153 16.1
2020-Jan-18 03:25 153 16.1
2020-Jan-18 03:15 153 16.1
2020-Jan-18 03:05 153 16.7
2020-Jan-18 02:55 153 16.7
2020-Jan-18 02:46 153 16.1
2020-Jan-18 02:40 153 16.7
2020-Jan-18 02:35 166 16.7
2020-Jan-18 02:30 167 16.7
2020-Jan-18 02:25 181 16.7
2020-Jan-18 02:16 181 16.1
2020-Jan-18 02:10 182 16.7
2020-Jan-18 02:05 182 16.7
2020-Jan-18 01:55 178 16.7
2020-Jan-18 01:45 178 16.7
2020-Jan-18 01:35 205 16.7
2020-Jan-18 01:25 109 0 gusting 1 16.7
2020-Jan-18 01:15 144 16.1
2020-Jan-18 01:05 083 16.1
2020-Jan-18 00:55 069 16.1
2020-Jan-18 00:50 067 16.1
2020-Jan-18 00:46 067 16.1
2020-Jan-18 00:40 144 16.7
2020-Jan-18 00:35 144 16.7
2020-Jan-18 00:30 148 16.7
2020-Jan-18 00:25 148 16.7
2020-Jan-18 00:20 133 16.7
2020-Jan-18 00:16 132 16.1
2020-Jan-18 00:10 134 16.7
2020-Jan-18 00:05 136 16.7
2020-Jan-18 00:00 142 16.7
2020-Jan-17 23:55 115 16.7
2020-Jan-17 23:50 128 16.7
2020-Jan-17 23:46 145 16.7
2020-Jan-17 23:40 145 16.7
2020-Jan-17 23:35 076 16.7
2020-Jan-17 23:32 076 16.7
2020-Jan-17 23:25 117 17.2
2020-Jan-17 23:20 117 17.2
2020-Jan-17 23:15 168 17.2
2020-Jan-17 23:05 149 17.2
2020-Jan-17 23:02 154 17.2
2020-Jan-17 22:55 119 17.2
2020-Jan-17 22:50 124 17.2
2020-Jan-17 22:47 124 17.2
2020-Jan-17 22:40 097 17.2
2020-Jan-17 22:35 130 17.2
2020-Jan-17 22:25 112 17.8
2020-Jan-17 22:15 155 17.8
2020-Jan-17 22:10 074 17.8
2020-Jan-17 22:05 153 0 gusting 2 17.8
2020-Jan-17 22:00 158 17.8
2020-Jan-17 21:55 126 0 gusting 1 17.8
2020-Jan-17 21:50 142 17.8
2020-Jan-17 21:46 125 17.8
2020-Jan-17 21:40 105 18.3
2020-Jan-17 21:35 067 18.3
2020-Jan-17 21:30 139 18.3
2020-Jan-17 21:25 016 18.3
2020-Jan-17 21:16 149 17.8
2020-Jan-17 21:10 071 0 gusting 3 18.3
2020-Jan-17 21:05 159 0 gusting 2 18.3
2020-Jan-17 21:00 165 18.3
2020-Jan-17 20:55 126 0 gusting 2 18.3
2020-Jan-17 20:50 136 18.3
2020-Jan-17 20:45 111 0 gusting 5 18.3
2020-Jan-17 20:35 147 0 gusting 5 18.3
2020-Jan-17 20:30 161 1 gusting 5 18.3
2020-Jan-17 20:25 119 18.3
2020-Jan-17 20:20 148 0 gusting 3 17.8
2020-Jan-17 20:16 159 17.8
2020-Jan-17 20:15 188 17.8
2020-Jan-17 20:05 089 17.8
2020-Jan-17 19:55 065 17.2
2020-Jan-17 19:45 111 17.2
2020-Jan-17 19:35 144 17.2
2020-Jan-17 19:33 144 17.2
2020-Jan-17 19:25 145 17.8
2020-Jan-17 19:20 145 17.8
2020-Jan-17 19:15 145 17.8
2020-Jan-17 19:10 111 17.8
2020-Jan-17 19:00 155 17.8
2020-Jan-17 18:55 155 17.8
2020-Jan-17 18:50 086 17.8
2020-Jan-17 18:46 154 17.2
2020-Jan-17 18:45 154 0 gusting 1 17.8
2020-Jan-17 18:35 117 17.2
2020-Jan-17 18:32 117 16.7
2020-Jan-17 18:25 144 17.2
2020-Jan-17 18:20 115 16.7
2020-Jan-17 18:15 110 16.7
2020-Jan-17 18:05 110 16.7
2020-Jan-17 18:00 110 0 gusting 2 16.7
2020-Jan-17 17:55 136 16.7
2020-Jan-17 17:50 135 0 gusting 2 16.7
2020-Jan-17 17:45 095 0 gusting 2 16.7
2020-Jan-17 17:40 067 0 gusting 3 16.7
2020-Jan-17 17:35 077 16.7
2020-Jan-17 17:32 103 16.7
2020-Jan-17 17:25 096 16.7
2020-Jan-17 17:20 129 0 gusting 3 16.7
2020-Jan-17 17:16 026 16.1
2020-Jan-17 17:10 058 16.7
2020-Jan-17 17:05 042 16.1
2020-Jan-17 16:55 069 16.1
2020-Jan-17 16:50 078 16.1
2020-Jan-17 16:45 146 16.1
2020-Jan-17 16:40 092 16.1
2020-Jan-17 16:35 110 15.6
2020-Jan-17 16:32 101 15.6
2020-Jan-17 16:30 101 15.6
2020-Jan-17 16:20 136 15.0
2020-Jan-17 16:15 146 15.0
2020-Jan-17 16:05 067 15.0
2020-Jan-17 16:00 069 0 gusting 3 14.4
2020-Jan-17 15:55 114 14.4
2020-Jan-17 15:50 136 0 gusting 2 14.4
2020-Jan-17 15:46 097 0 gusting 2 13.9
2020-Jan-17 15:40 061 1 gusting 2 14.4
2020-Jan-17 15:35 043 0 gusting 3 13.9
2020-Jan-17 15:30 081 0 gusting 3 13.9
2020-Jan-17 15:25 042 0 gusting 3 13.9
2020-Jan-17 15:20 092 0 gusting 2 13.9
2020-Jan-17 15:15 040 13.3
2020-Jan-17 15:10 101 13.3
2020-Jan-17 15:05 103 1 gusting 4 13.3
2020-Jan-17 15:00 042 13.3
2020-Jan-17 14:50 100 0 gusting 6 12.8
2020-Jan-17 14:46 086 0 gusting 6 12.8
2020-Jan-17 14:45 087 0 gusting 6 12.8
2020-Jan-17 14:35 102 0 gusting 3 13.3
2020-Jan-17 14:30 040 12.8
2020-Jan-17 14:25 091 0 gusting 3 12.8
2020-Jan-17 14:17 360 12.8
2020-Jan-17 14:10 360 0 gusting 4 12.8
2020-Jan-17 14:05 360 0 gusting 4 12.8
2020-Jan-17 14:00 360 0 gusting 4 12.8
2020-Jan-17 13:55 360 12.8
2020-Jan-17 13:50 360 0 gusting 2 12.8
2020-Jan-17 13:45 360 0 gusting 2 12.8
2020-Jan-17 13:40 360 0 gusting 2 12.8
2020-Jan-17 13:35 360 12.8
2020-Jan-17 13:30 360 12.8
2020-Jan-17 13:25 360 0 gusting 2 12.8
2020-Jan-17 13:15 078 12.2
2020-Jan-17 13:05 039 12.2
2020-Jan-17 12:55 039 12.2
2020-Jan-17 12:45 082 12.2
2020-Jan-17 12:40 036 12.2
2020-Jan-17 12:35 042 12.2
2020-Jan-17 12:30 036 0 gusting 3 12.2
2020-Jan-17 12:20 038 0 gusting 3 12.2
2020-Jan-17 12:16 036 12.2
2020-Jan-17 12:10 021 12.2
2020-Jan-17 12:05 054 0 gusting 2 12.2
2020-Jan-17 12:00 061 0 gusting 3 12.2
2020-Jan-17 11:50 070 12.2
2020-Jan-17 11:47 348 12.2
2020-Jan-17 11:40 034 0 gusting 3 12.2
2020-Jan-17 11:30 038 0 gusting 3 12.2
2020-Jan-17 11:25 030 0 gusting 3 12.2
2020-Jan-17 11:20 031 12.2
2020-Jan-17 11:16 041 12.2
2020-Jan-17 11:10 040 0 gusting 3 12.2
2020-Jan-17 11:05 028 0 gusting 2 12.2
2020-Jan-17 11:00 066 0 gusting 2 12.2
2020-Jan-17 10:55 038 0 gusting 2 12.2
2020-Jan-17 10:50 096 0 gusting 2 12.2
2020-Jan-17 10:45 028 12.2
2020-Jan-17 10:35 038 12.2
2020-Jan-17 10:32 036 11.7
2020-Jan-17 10:25 067 12.2
2020-Jan-17 10:20 042 0 gusting 2 12.2
2020-Jan-17 10:15 040 0 gusting 2 12.2
2020-Jan-17 10:05 055 12.2
2020-Jan-17 10:01 049 12.2
2020-Jan-17 09:55 057 12.2
2020-Jan-17 09:45 059 0 gusting 2 12.2
2020-Jan-17 09:40 067 0 gusting 2 12.2
2020-Jan-17 09:35 110 12.2
2020-Jan-17 09:31 350 12.2
2020-Jan-17 09:25 331 12.8
2020-Jan-17 09:20 327 0 gusting 2 12.8
2020-Jan-17 09:15 035 0 gusting 2 12.8
2020-Jan-17 09:10 034 0 gusting 3 12.8
2020-Jan-17 09:05 049 0 gusting 3 12.8
2020-Jan-17 09:00 044 12.8
2020-Jan-17 08:50 032 12.8
2020-Jan-17 08:46 034 12.2
2020-Jan-17 08:40 034 0 gusting 1 12.8
2020-Jan-17 08:35 034 12.8
2020-Jan-17 08:30 034 12.8
2020-Jan-17 08:25 034 12.8
2020-Jan-17 08:20 034 12.8
2020-Jan-17 08:17 034 0 gusting 2 12.8
2020-Jan-17 08:10 050 13.3
2020-Jan-17 08:05 050 0 gusting 2 13.3
2020-Jan-17 08:00 336 0 gusting 2 13.3
2020-Jan-17 07:55 053 0 gusting 3 13.3
2020-Jan-17 07:50 044 13.3
2020-Jan-17 07:40 032 13.3
2020-Jan-17 07:30 050 1 gusting 4 13.3
2020-Jan-17 07:25 042 13.3
2020-Jan-17 07:20 055 0 gusting 3 13.3
2020-Jan-17 07:16 005 13.3
2020-Jan-17 07:10 044 0 gusting 2 13.3
2020-Jan-17 07:05 046 0 gusting 2 13.3
2020-Jan-17 07:00 047 0 gusting 2 13.3
2020-Jan-17 06:55 028 13.3
2020-Jan-17 06:50 024 0 gusting 2 13.3
2020-Jan-17 06:40 026 13.9
2020-Jan-17 06:30 028 0 gusting 2 13.9
2020-Jan-17 06:25 318 13.9
2020-Jan-17 06:20 317 13.9
2020-Jan-17 06:10 317 13.9
2020-Jan-17 06:01 032 13.9
2020-Jan-17 05:55 032 13.9
2020-Jan-17 05:50 028 13.9
2020-Jan-17 05:45 349 13.9
2020-Jan-17 05:40 345 13.3
2020-Jan-17 05:35 346 13.9
2020-Jan-17 05:30 346 13.3
2020-Jan-17 05:25 346 13.9
2020-Jan-17 05:20 346 13.9
2020-Jan-17 05:17 344 13.3
2020-Jan-17 05:10 344 13.9
2020-Jan-17 05:05 344 13.9
2020-Jan-17 05:01 344 13.9
2020-Jan-17 04:55 344 13.9
2020-Jan-17 04:50 344 14.4
2020-Jan-17 04:40 344 14.4
2020-Jan-17 04:35 344 14.4
2020-Jan-17 04:34 344 13.9
2020-Jan-17 04:25 344 14.4
2020-Jan-17 04:20 344 14.4
2020-Jan-17 04:17 344 14.4
2020-Jan-17 04:10 344 14.4
2020-Jan-17 04:05 341 14.4
2020-Jan-17 04:01 342 14.4
2020-Jan-17 03:55 039 14.4
2020-Jan-17 03:50 323 15.0
2020-Jan-17 03:45 005 15.0
2020-Jan-17 03:35 346 15.0
2020-Jan-17 03:32 328 0 gusting 3 14.4
2020-Jan-17 03:25 342 15.0
2020-Jan-17 03:20 325 0 gusting 3 15.0
2020-Jan-17 03:15 355 15.0
2020-Jan-17 03:05 025 0 gusting 2 15.0
2020-Jan-17 03:01 325 15.0
2020-Jan-17 02:55 005 0 gusting 3 15.0
2020-Jan-17 02:50 360 0 gusting 3 15.0
2020-Jan-17 02:45 346 15.6
2020-Jan-17 02:40 005 1 gusting 3 15.6
2020-Jan-17 02:35 327 0 gusting 3 15.6
2020-Jan-17 02:30 040 15.6
2020-Jan-17 02:20 020 0 gusting 2 15.6
2020-Jan-17 02:17 321 15.6
2020-Jan-17 02:10 035 1 gusting 3 15.6
2020-Jan-17 02:05 013 0 gusting 3 15.6
2020-Jan-17 02:00 355 0 gusting 5 15.6
2020-Jan-17 01:55 300 0 gusting 5 15.6
2020-Jan-17 01:50 253 0 gusting 5 15.6
2020-Jan-17 01:47 041 15.6
2020-Jan-17 01:40 336 0 gusting 3 16.1
2020-Jan-17 01:35 355 1 gusting 7 16.1
2020-Jan-17 01:30 041 16.1
2020-Jan-17 01:25 024 1 gusting 5 16.1
2020-Jan-17 01:20 327 0 gusting 3 16.1
2020-Jan-17 01:17 360 0 gusting 3 16.1
2020-Jan-17 01:10 040 0 gusting 3 16.1
2020-Jan-17 01:05 038 1 gusting 6 16.7
2020-Jan-17 01:00 019 0 gusting 2 16.7
2020-Jan-17 00:55 024 0 gusting 4 16.7
2020-Jan-17 00:50 041 0 gusting 3 16.7
2020-Jan-17 00:45 025 1 gusting 3 16.7
2020-Jan-17 00:40 032 1 gusting 5 16.7
2020-Jan-17 00:35 009 2 gusting 5 16.7
2020-Jan-17 00:31 051 1 gusting 5 16.7
2020-Jan-17 00:25 355 1 gusting 5 17.2
2020-Jan-17 00:20 324 1 gusting 6 17.2
2020-Jan-17 00:15 347 0 gusting 6 17.2
2020-Jan-17 00:10 019 0 gusting 8 17.2
2020-Jan-17 00:05 332 2 gusting 8 17.2
2020-Jan-17 00:00 071 0 gusting 6 17.2
2020-Jan-16 23:55 024 1 gusting 5 17.8
2020-Jan-16 23:50 078 0 gusting 6 17.8
2020-Jan-16 23:46 019 1 gusting 7 17.8
2020-Jan-16 23:40 018 2 gusting 7 17.8
2020-Jan-16 23:35 348 1 gusting 8 18.3
2020-Jan-16 23:30 020 1 gusting 8 18.3
2020-Jan-16 23:25 342 0 gusting 7 18.3
2020-Jan-16 23:20 041 1 gusting 7 18.9
2020-Jan-16 23:15 303 0 gusting 7 18.9
2020-Jan-16 23:10 020 0 gusting 4 18.9
2020-Jan-16 23:05 028 1 gusting 5 18.9
2020-Jan-16 23:00 349 0 gusting 5 19.4
2020-Jan-16 22:55 018 2 gusting 5 19.4
2020-Jan-16 22:50 348 1 gusting 5 19.4
2020-Jan-16 22:47 301 0 gusting 5 19.4
2020-Jan-16 22:40 360 0 gusting 10 19.4
2020-Jan-16 22:35 360 2 gusting 10 19.4
2020-Jan-16 22:30 306 1 gusting 4 19.4
2020-Jan-16 22:25 346 0 gusting 6 19.4
2020-Jan-16 22:20 005 19.4
2020-Jan-16 22:15 331 0 gusting 2 19.4
2020-Jan-16 22:05 340 20.0
2020-Jan-16 22:02 096 0 gusting 5 19.4
2020-Jan-16 21:55 027 0 gusting 4 20.0
2020-Jan-16 21:50 316 20.0
2020-Jan-16 21:45 032 0 gusting 6 19.4
2020-Jan-16 21:40 014 0 gusting 6 19.4
2020-Jan-16 21:35 061 0 gusting 3 20.0
2020-Jan-16 21:30 337 20.0
2020-Jan-16 21:20 028 0 gusting 4 20.0
2020-Jan-16 21:16 025 20.0
2020-Jan-16 21:10 013 1 gusting 11 20.6
2020-Jan-16 21:05 027 0 gusting 11 20.6
2020-Jan-16 21:00 335 1 gusting 5 20.6
2020-Jan-16 20:55 348 21.1
2020-Jan-16 20:50 317 0 gusting 7 21.1
2020-Jan-16 20:46 306 1 gusting 7 21.1
2020-Jan-16 20:40 311 1 gusting 6 21.1
2020-Jan-16 20:35 037 21.1
2020-Jan-16 20:30 037 21.1
2020-Jan-16 20:25 035 0 gusting 3 21.1
2020-Jan-16 20:20 040 0 gusting 4 21.1
2020-Jan-16 20:16 005 21.1
2020-Jan-16 20:10 327 21.1
2020-Jan-16 20:05 035 0 gusting 3 21.1
2020-Jan-16 20:00 010 1 gusting 3 21.1
2020-Jan-16 19:55 034 0 gusting 2 21.1
2020-Jan-16 19:50 062 21.1
2020-Jan-16 19:45 031 0 gusting 3 21.1
2020-Jan-16 19:40 265 21.1
2020-Jan-16 19:35 320 21.1
2020-Jan-16 19:32 319 20.6
2020-Jan-16 19:25 043 0 gusting 4 21.1
2020-Jan-16 19:20 347 0 gusting 4 21.1
2020-Jan-16 19:15 005 0 gusting 3 21.1
2020-Jan-16 19:10 355 21.1
2020-Jan-16 19:05 325 0 gusting 4 21.1